Location: Azul
(36.7830°S, 59.8500°W)
Time: 21:06:00
(UTC-03:00)

ISS - Pass Details

Date: 18 February 2020
Orbit: 415 x 422 km, 51.6° (Epoch: 27 February)

Event Time Altitude Azimuth Distance (km) Brightness Sun altitude
Rises 20:27:26 0° 298° (WNW) 2,369 0.7 -7.4°
Reaches altitude 10° 20:29:35 10° 291° (WNW) 1,509 -0.2 -7.8°
Maximum altitude 20:32:51 44° 216° (SW) 596 -2.5 -8.5°
Drops below altitude 10° 20:36:09 10° 142° (SE) 1,521 -1.1 -9.1°
Sets 20:38:20 0° 135° (SE) 2,390 -0.1 -9.5°
